This is the latest recevied weather packets stored in our database for station/object HA3YA-WX. If no packets are shown the sender has not sent any weather packets the latest 10 day(s).
| Time | Temp. | Humidity | Pressure | Rain* | Wind** | Luminosity | Snow |
|---|---|---|---|---|---|---|---|
| 1777222893 | 16.11° C | 32% | 1007.8 hPa | - | - | - | - |
| 1777222189 | 16.67° C | 32% | 1007 hPa | - | - | - | - |
| 1777221589 | 16.67° C | 32% | 1007 hPa | - | - | - | - |
| 1777220988 | 17.22° C | 32% | 1007.6 hPa | - | - | - | - |
| 1777220389 | 17.78° C | 32% | 1007.6 hPa | - | - | - | - |
| 1777219789 | 18.89° C | 31% | 1007.6 hPa | - | - | - | - |
| 1777219189 | 18.89° C | 31% | 1007 hPa | - | - | - | - |
| 1777218589 | 18.89° C | 31% | 1007.4 hPa | - | - | - | - |
| 1777217989 | 19.44° C | 31% | 1007.4 hPa | - | - | - | - |
| 1777217389 | 20.56° C | 31% | 1007.4 hPa | - | - | - | - |
| 1777216789 | 20° C | 31% | 1007.4 hPa | - | - | - | - |
| 1777216189 | 20° C | 31% | 1007.4 hPa | - | - | - | - |
| 1777215589 | 20.56° C | 30% | 1007 hPa | - | - | - | - |
| 1777214989 | 21.67° C | 30% | 1006.9 hPa | - | - | - | - |
| 1777214389 | 21.67° C | 30% | 1006.9 hPa | - | - | - | - |
| 1777213789 | 21.67° C | 30% | 1006.9 hPa | - | - | - | - |
| 1777213189 | 22.22° C | 30% | 1006.9 hPa | - | - | - | - |
| 1777212589 | 21.11° C | 30% | 1006.9 hPa | - | - | - | - |
| 1777211989 | 21.11° C | 30% | 1007 hPa | - | - | - | - |
| 1777211389 | 20.56° C | 30% | 1007 hPa | - | - | - | - |
| 1777210789 | 20° C | 30% | 1007 hPa | - | - | - | - |
| 1777210188 | 21.11° C | 30% | 1007 hPa | - | - | - | - |
| 1777209589 | 21.67° C | 30% | 1007 hPa | - | - | - | - |
| 1777208989 | 21.11° C | 30% | 1007 hPa | - | - | - | - |
| 1777208388 | 21.11° C | 30% | 1007 hPa | - | - | - | - |
* Rain since midnight (hover to see other rain measurements)
** Current wind speed in m/s (hover to see current wind gust speed)